Location: DARK SKY Beskydy - Park tmavé oblohy, www.darkskybeskydy.cz
(49.4926°N, 18.5016°E)
Time: 01:32:06
(UTC+01:00)

BlueWalker 3 - Visible Passes

Search period start: 01 December 2022 00:00
Search period end: 11 December 2022 00:00
Orbit: 500 x 519 km, 53.2° (Epoch: 30 November)

Date Brightness Start Highest point End Pass type
(mag) Time Alt. Az. Time Alt. Az. Time Alt. Az.
01 Dec 2.4 17:19:07 10° W 17:22:57 51° N 17:24:49 27° NE visible
01 Dec 4.3 18:58:10 10° WNW 18:59:38 21° WNW 18:59:38 21° WNW visible
02 Dec 2.4 17:00:45 10° W 17:04:35 51° N 17:07:09 19° ENE visible
02 Dec 3.6 18:39:47 10° WNW 18:41:59 30° NW 18:41:59 30° NW visible
03 Dec 2.4 16:42:23 10° W 16:46:13 50° N 16:49:31 13° ENE visible
03 Dec 2.8 18:21:25 10° WNW 18:24:20 43° NW 18:24:20 43° NW visible
04 Dec 2.4 16:24:01 10° W 16:27:50 49° N 16:31:39 10° ENE visible
04 Dec 2.1 18:03:01 10° WNW 18:06:44 58° N 18:06:44 58° N visible
05 Dec 2.0 17:44:38 10° WNW 17:48:31 61° NNE 17:49:10 51° ENE visible
05 Dec 5.1 19:23:25 10° WNW 19:24:00 14° WNW 19:24:00 14° WNW visible
06 Dec 2.0 17:26:14 10° WNW 17:30:07 62° NNE 17:31:40 33° E visible
06 Dec 4.5 19:05:02 10° WNW 19:06:30 21° W 19:06:30 21° W visible
07 Dec 2.0 17:07:49 10° WNW 17:11:44 64° NNE 17:14:15 20° E visible
07 Dec 3.8 18:46:38 10° WNW 18:49:06 31° WSW 18:49:06 31° WSW visible
08 Dec 2.0 16:49:25 10° WNW 16:53:19 66° NNE 16:56:59 11° E visible
08 Dec 3.2 18:28:14 10° WNW 18:31:50 38° SW 18:31:50 38° SW visible
09 Dec 2.0 16:31:00 10° WNW 16:34:54 68° NNE 16:38:47 10° ESE visible
09 Dec 3.3 18:09:50 10° WNW 18:13:26 36° SW 18:14:44 28° S visible
10 Dec 3.5 17:51:26 10° WNW 17:55:00 34° SW 17:57:52 14° SSE visible
